FW9064 Weather Reports


Display with metric or nautical units.
time (UTC)temp
F
wind
direction
speed
MPH
gust
MPH
rain 1hr
in
rain 24hr
in
rain mn
in
humidity
%
barometer
mb
20260507012542 71 113 0.0 0.0 0.00 0.51 0.51 99 1011.6
20260507012038 71 113 0.0 0.0 0.00 0.51 0.51 99 1011.6
20260507011536 71 145 0.0 0.0 0.00 0.51 0.51 99 1011.9
20260507011032 71 115 0.0 0.0 0.00 0.51 0.51 99 1011.1
20260507010526 71 113 0.0 0.0 0.00 0.51 0.51 99 1011.0
20260507010023 71 113 0.0 0.0 0.00 0.51 0.51 99 1010.8
20260507005521 72 112 0.0 0.0 0.00 0.51 0.51 99 1011.6
20260507005017 72 113 0.0 0.0 0.00 0.51 0.51 99 1012.1
20260507004514 71 112 0.0 0.0 0.00 0.51 0.51 99 1011.7
20260507004012 71 113 0.0 0.0 0.00 0.51 0.51 99 1012.0
20260507003507 71 113 0.0 0.0 0.00 0.51 0.51 99 1011.9
20260507003001 71 113 0.0 0.0 0.00 0.51 0.51 99 1011.8
20260507002459 72 112 0.0 0.0 0.00 0.51 0.51 99 1011.1
20260507001955 72 110 0.0 0.0 0.00 0.51 0.51 99 1011.5
20260507001452 72 113 0.0 0.0 0.00 0.51 0.51 99 1011.8
20260507000949 72 113 0.0 0.0 0.00 0.51 0.51 99 1011.3
20260507000445 72 111 0.0 0.0 0.00 0.51 0.51 99 1011.4
20260506235940 72 112 0.0 0.0 0.00 0.51 0.51 99 1011.4
20260506235438 72 112 0.0 0.0 0.00 0.51 0.51 99 1011.3
20260506234933 72 113 0.0 0.0 0.00 0.51 0.51 99 1011.4
20260506234432 72 115 0.0 0.0 0.00 0.51 0.51 99 1011.6
20260506233929 72 113 0.0 0.0 0.00 0.51 0.51 99 1011.9
20260506233425 72 113 0.0 0.0 0.00 0.51 0.51 99 1011.6
20260506232921 72 111 0.0 0.0 0.00 0.51 0.51 99 1011.9
20260506232418 72 114 0.0 0.0 0.00 0.51 0.51 99 1012.0
20260506231914 72 113 0.0 0.0 0.00 0.51 0.51 99 1012.2
20260506231412 72 112 0.0 0.0 0.00 0.51 0.51 99 1012.1
20260506230909 72 113 0.0 0.0 0.00 0.51 0.51 99 1011.9
20260506230405 72 113 0.0 0.0 0.00 0.51 0.51 99 1012.3
20260506225901 72 116 0.0 0.0 0.00 0.51 0.51 99 1012.3
20260506225359 72 114 0.0 0.0 0.00 0.51 0.51 99 1012.1
20260506224856 72 108 0.0 0.0 0.00 0.51 0.51 99 1012.0
20260506224353 72 115 0.0 0.0 0.00 0.51 0.51 99 1011.7
20260506223849 72 110 0.0 0.0 0.00 0.51 0.51 99 1012.3
20260506223345 73 111 0.0 0.0 0.00 0.51 0.51 99 1012.0
20260506222842 72 110 0.0 0.0 0.00 0.51 0.51 99 1012.1
20260506222338 72 110 0.0 0.0 0.00 0.51 0.51 99 1012.0
20260506221836 73 111 0.0 0.0 0.00 0.51 0.51 99 1012.0
20260506221333 72 115 0.0 0.0 0.00 0.51 0.51 99 1011.7
20260506220831 72 111 0.0 0.0 0.00 0.51 0.51 99 1012.2
20260506220326 72 110 0.0 0.0 0.00 0.51 0.51 99 1012.1
20260506215823 72 110 0.0 0.0 0.05 0.51 0.51 99 1012.2
20260506215318 72 110 0.0 0.0 0.05 0.51 0.51 98 1011.9
20260506214814 72 85 0.0 0.0 0.00 0.50 0.50 98 1012.3
20260506214311 72 110 0.0 0.0 0.07 0.50 0.50 98 1012.6
20260506213810 72 115 0.0 0.0 0.19 0.50 0.50 98 1012.3
20260506213306 72 114 0.0 0.0 0.47 0.50 0.50 98 1012.3
20260506212804 72 111 0.0 0.0 0.78 0.48 0.48 98 1012.3
20260506212259 72 107 0.0 0.0 0.50 0.42 0.42 98 1012.4
20260506211754 72 110 0.0 0.0 0.12 0.35 0.35 98 1012.4
20260506211251 72 109 0.0 0.0 0.07 0.33 0.33 98 1012.4
20260506210748 72 111 0.0 0.0 0.31 0.33 0.33 98 1012.6
20260506210245 73 111 0.0 0.0 1.72 0.32 0.32 97 1012.6
20260506205742 73 111 0.0 0.0 1.75 0.29 0.29 96 1012.4
20260506205238 75 110 1.0 1.0 0.35 0.06 0.06 92 1012.8
20260506204735 75 139 1.0 1.0 0.00 0.00 0.00 89 1012.5
20260506204232 75 90 1.0 2.0 0.00 0.00 0.00 88 1012.2
20260506203730 76 162 1.0 2.0 0.00 0.00 0.00 87 1012.4
20260506203227 76 122 0.0 1.0 0.00 0.00 0.00 86 1012.5
20260506202724 76 111 0.0 0.0 0.00 0.00 0.00 86 1012.4
20260506202220 76 121 0.0 0.0 0.00 0.00 0.00 86 1012.6
20260506201712 77 123 0.0 1.0 0.00 0.00 0.00 85 1012.7
20260506201209 77 194 3.0 6.0 0.00 0.00 0.00 84 1012.5
20260506200706 77 137 2.0 2.0 0.00 0.00 0.00 85 1012.6
20260506200203 77 112 0.0 1.0 0.00 0.00 0.00 86 1012.8
20260506195659 77 113 0.0 0.0 0.00 0.00 0.00 86 1012.8
20260506195155 77 113 0.0 0.0 0.00 0.00 0.00 85 1013.2
20260506194653 77 116 0.0 0.0 0.00 0.00 0.00 85 1013.1
20260506194149 77 121 0.0 0.0 0.00 0.00 0.00 84 1013.5
20260506193647 78 153 1.0 2.0 0.00 0.00 0.00 83 1013.5
20260506193144 77 84 0.0 1.0 0.00 0.00 0.00 84 1013.5
20260506192640 77 113 0.0 0.0 0.00 0.00 0.00 84 1013.8
20260506192136 77 105 1.0 1.0 0.00 0.00 0.00 83 1013.8
20260506191633 78 113 0.0 0.0 0.00 0.00 0.00 83 1013.8
20260506191129 78 177 1.0 2.0 0.00 0.00 0.00 83 1013.8
20260506190627 78 164 0.0 0.0 0.00 0.00 0.00 82 1013.8
20260506190124 78 102 2.0 3.0 0.00 0.00 0.00 81 1013.8
20260506185621 78 126 2.0 2.0 0.00 0.00 0.00 81 1013.9
20260506185117 78 215 3.0 5.0 0.00 0.00 0.00 81 1013.8
20260506184614 78 109 0.0 0.0 0.00 0.00 0.00 81 1014.2
20260506184111 78 107 0.0 0.0 0.00 0.00 0.00 81 1014.1
20260506183608 78 116 0.0 0.0 0.00 0.00 0.00 81 1014.0
20260506183104 78 154 1.0 2.0 0.00 0.00 0.00 81 1014.1
20260506182602 78 112 0.0 0.0 0.00 0.00 0.00 80 1014.1
20260506182059 78 144 3.0 5.0 0.00 0.00 0.00 80 1014.1
20260506181557 77 119 1.0 1.0 0.00 0.00 0.00 81 1014.1
20260506181053 77 211 2.0 2.0 0.00 0.00 0.00 82 1013.9
20260506180550 77 178 1.0 2.0 0.00 0.00 0.00 82 1014.2
20260506180047 77 196 3.0 6.0 0.00 0.00 0.00 81 1014.2
20260506175543 78 138 2.0 3.0 0.00 0.00 0.00 80 1014.3
20260506175039 77 154 3.0 5.0 0.00 0.00 0.00 80 1014.2
20260506174538 78 115 1.0 1.0 0.00 0.00 0.00 80 1014.3
20260506174033 78 101 4.0 5.0 0.00 0.00 0.00 78 1014.3
20260506173532 78 102 1.0 1.0 0.00 0.00 0.00 79 1014.1
20260506173028 78 146 5.0 7.0 0.00 0.00 0.00 77 1014.3
20260506172526 78 109 0.0 1.0 0.00 0.00 0.00 79 1014.5
20260506172022 78 124 1.0 2.0 0.00 0.00 0.00 79 1014.5
20260506171519 78 108 1.0 1.0 0.00 0.00 0.00 79 1014.4
20260506171017 78 133 0.0 0.0 0.00 0.00 0.00 79 1014.6
20260506170514 78 136 1.0 1.0 0.00 0.00 0.00 79 1014.3
20260506170006 78 118 0.0 0.0 0.00 0.00 0.00 78 1014.3
20260506165504 77 120 2.0 3.0 0.00 0.00 0.00 78 1014.3
20260506165000 77 101 1.0 1.0 0.00 0.00 0.00 79 1014.4
20260506164456 77 116 1.0 2.0 0.00 0.00 0.00 79 1014.3
20260506163954 78 111 2.0 3.0 0.00 0.00 0.00 77 1014.6
20260506163449 78 139 1.0 2.0 0.00 0.00 0.00 77 1014.4
20260506162944 78 202 4.0 6.0 0.00 0.00 0.00 77 1014.1
20260506162442 78 158 1.0 1.0 0.00 0.00 0.00 77 1014.4
20260506161939 77 95 1.0 1.0 0.00 0.00 0.00 78 1014.4
20260506161437 77 175 3.0 5.0 0.00 0.00 0.00 78 1014.4
20260506160934 78 109 1.0 1.0 0.00 0.00 0.00 78 1014.5
20260506160432 78 103 0.0 0.0 0.00 0.00 0.00 79 1014.5
20260506155929 78 112 0.0 0.0 0.00 0.00 0.00 79 1014.5
20260506155427 78 98 0.0 1.0 0.00 0.00 0.00 79 1014.6
20260506153554 78 134 2.0 2.0 0.00 0.00 0.00 77 1014.5
20260506153051 77 109 0.0 0.0 0.00 0.00 0.00 78 1014.4
20260506152548 77 120 3.0 3.0 0.00 0.00 0.00 77 1014.7
20260506152046 77 267 1.0 2.0 0.00 0.00 0.00 77 1014.6
20260506151544 77 75 3.0 3.0 0.00 0.00 0.00 77 1014.6
20260506151041 77 112 0.0 1.0 0.00 0.00 0.00 79 1014.6
20260506150537 76 120 1.0 2.0 0.00 0.00 0.00 80 1014.5
20260506150034 75 123 1.0 1.0 0.00 0.00 0.00 81 1014.6
20260506145531 75 117 0.0 0.0 0.00 0.00 0.00 82 1014.6
20260506145028 75 133 0.0 1.0 0.00 0.00 0.00 82 1014.8
20260506144525 74 110 1.0 1.0 0.00 0.00 0.00 83 1014.7
20260506144022 75 104 2.0 2.0 0.00 0.00 0.00 82 1014.7
20260506143520 74 168 3.0 5.0 0.00 0.00 0.00 83 1014.7
20260506143018 73 161 1.0 1.0 0.00 0.00 0.00 84 1014.8
20260506142516 73 167 1.0 2.0 0.00 0.00 0.00 85 1014.9
20260506142014 73 149 1.0 1.0 0.00 0.00 0.00 84 1014.8
20260506141511 73 141 2.0 3.0 0.00 0.00 0.00 84 1014.7
20260506141009 74 117 1.0 1.0 0.00 0.00 0.00 85 1014.8
20260506140506 73 114 1.0 1.0 0.00 0.00 0.00 85 1014.9
20260506140004 72 118 0.0 0.0 0.00 0.00 0.00 86 1014.9
20260506135500 72 95 1.0 1.0 0.00 0.00 0.00 87 1014.8
20260506134956 71 104 0.0 1.0 0.00 0.00 0.00 88 1015.0
20260506134452 71 173 1.0 2.0 0.00 0.00 0.00 88 1014.9
20260506133949 71 113 0.0 0.0 0.00 0.00 0.00 89 1015.2
20260506133446 71 129 2.0 3.0 0.00 0.00 0.00 88 1015.1
20260506132943 71 123 1.0 1.0 0.00 0.00 0.00 89 1015.3
20260506132440 70 80 1.0 1.0 0.00 0.00 0.00 89 1014.9
20260506131937 70 236 3.0 3.0 0.00 0.00 0.00 90 1015.1
20260506131434 69 107 0.0 1.0 0.00 0.00 0.00 91 1014.8
20260506130931 69 120 1.0 1.0 0.00 0.00 0.00 91 1015.1
20260506130427 69 131 1.0 2.0 0.00 0.00 0.00 92 1015.0
20260506125926 68 127 2.0 2.0 0.00 0.00 0.00 92 1015.1
20260506125424 68 160 1.0 1.0 0.00 0.00 0.00 92 1015.0
20260506124922 68 105 1.0 2.0 0.00 0.00 0.00 92 1014.9
20260506124419 68 127 1.0 1.0 0.00 0.00 0.00 92 1014.8
20260506123916 68 115 0.0 0.0 0.00 0.00 0.00 93 1015.2
20260506123414 68 109 0.0 0.0 0.00 0.00 0.00 93 1015.1
20260506122911 68 157 0.0 0.0 0.00 0.00 0.00 93 1015.0
20260506122408 68 111 0.0 1.0 0.00 0.00 0.00 93 1014.7
20260506121907 68 109 1.0 2.0 0.00 0.00 0.00 92 1014.9
20260506121403 68 122 1.0 1.0 0.00 0.00 0.00 92 1014.3
20260506120900 68 113 0.0 1.0 0.00 0.00 0.00 92 1014.3
20260506120357 68 110 0.0 0.0 0.00 0.00 0.00 92 1014.4
20260506115855 68 116 1.0 2.0 0.00 0.00 0.00 92 1014.2
20260506115353 68 111 0.0 0.0 0.00 0.00 0.00 92 1014.1
20260506114851 68 149 1.0 1.0 0.00 0.00 0.00 92 1014.1
20260506114348 68 101 1.0 1.0 0.00 0.00 0.00 92 1014.1
20260506113847 68 170 2.0 3.0 0.00 0.00 0.00 92 1014.1
20260506113344 68 116 2.0 3.0 0.00 0.00 0.00 92 1013.6
20260506112840 67 117 0.0 0.0 0.00 0.00 0.00 92 1013.5
20260506112338 67 116 0.0 0.0 0.00 0.00 0.00 92 1013.7
20260506111835 67 86 1.0 1.0 0.00 0.00 0.00 92 1013.8
20260506111333 67 107 0.0 0.0 0.00 0.00 0.00 93 1013.5
20260506110830 66 212 3.0 3.0 0.00 0.00 0.00 93 1013.7
20260506110327 66 112 0.0 0.0 0.00 0.00 0.00 93 1013.4
20260506105824 66 111 0.0 0.0 0.00 0.00 0.00 93 1013.5
20260506105320 66 110 0.0 0.0 0.00 0.00 0.00 93 1013.3
20260506104818 66 112 0.0 0.0 0.00 0.00 0.00 93 1013.3
20260506104316 66 111 0.0 0.0 0.00 0.00 0.00 92 1013.5
20260506103813 66 118 0.0 0.0 0.00 0.00 0.00 92 1013.2
20260506103310 66 109 0.0 0.0 0.00 0.00 0.00 92 1013.1
20260506102808 66 114 0.0 0.0 0.00 0.00 0.00 92 1013.0
20260506102306 66 111 0.0 0.0 0.00 0.00 0.00 92 1013.2
20260506101803 66 115 0.0 0.0 0.00 0.00 0.00 92 1013.2
20260506101258 66 110 0.0 0.0 0.00 0.00 0.00 92 1013.0
20260506100757 66 111 0.0 0.0 0.00 0.00 0.00 91 1012.8
20260506100254 66 112 0.0 0.0 0.00 0.00 0.00 91 1012.9
20260506095753 66 112 0.0 0.0 0.00 0.00 0.00 91 1012.9
20260506095249 66 114 0.0 0.0 0.00 0.00 0.00 91 1012.8
20260506094746 67 110 0.0 0.0 0.00 0.00 0.00 91 1012.7
20260506094244 67 110 0.0 0.0 0.00 0.00 0.00 90 1012.6
20260506093743 67 112 0.0 0.0 0.00 0.00 0.00 90 1012.5
20260506093239 67 110 0.0 0.0 0.00 0.00 0.00 90 1012.3
20260506092737 66 105 0.0 0.0 0.00 0.00 0.00 90 1012.3
20260506092235 66 112 0.0 0.0 0.00 0.00 0.00 90 1012.2
20260506091732 66 113 0.0 0.0 0.00 0.00 0.00 90 1012.2
20260506091229 66 112 0.0 0.0 0.00 0.00 0.00 90 1012.3
20260506090727 66 111 0.0 0.0 0.00 0.00 0.00 89 1012.3
20260506090224 67 111 0.0 0.0 0.00 0.00 0.00 89 1012.0
20260506085721 67 111 0.0 0.0 0.00 0.00 0.00 89 1012.1
20260506085217 67 111 0.0 0.0 0.00 0.00 0.00 89 1012.1
20260506084714 67 114 0.0 0.0 0.00 0.00 0.00 89 1012.0
20260506084210 67 111 0.0 0.0 0.00 0.00 0.00 88 1012.3
20260506083707 67 111 0.0 1.0 0.00 0.00 0.00 88 1011.9
20260506083205 67 114 0.0 0.0 0.00 0.00 0.00 88 1012.2
20260506082702 67 112 0.0 0.0 0.00 0.00 0.00 88 1012.4
20260506082202 67 110 0.0 0.0 0.00 0.00 0.00 88 1012.0
20260506081700 67 110 0.0 0.0 0.00 0.00 0.00 88 1012.4
20260506081158 67 139 1.0 1.0 0.00 0.00 0.00 87 1012.1
20260506080655 67 111 0.0 0.0 0.00 0.00 0.00 87 1012.1
20260506080152 67 113 0.0 0.0 0.00 0.00 0.00 87 1012.3
20260506073136 68 99 1.0 1.0 0.00 0.00 0.00 84 1012.2
20260506072632 68 115 2.0 3.0 0.00 0.00 0.00 84 1012.2
20260506072131 68 113 0.0 0.0 0.00 0.00 0.00 84 1012.5
20260506071628 68 149 0.0 1.0 0.00 0.00 0.00 83 1012.3
20260506071125 68 125 3.0 3.0 0.00 0.00 0.00 83 1012.4
20260506070622 68 113 0.0 1.0 0.00 0.00 0.00 83 1012.4
20260506070119 68 120 0.0 0.0 0.00 0.00 0.00 83 1012.2
20260506062056 69 129 1.0 1.0 0.00 0.00 0.00 81 1012.8
20260506061552 68 107 0.0 0.0 0.00 0.00 0.00 81 1012.8
20260506061050 69 108 0.0 0.0 0.00 0.00 0.00 81 1013.0
20260506060548 69 143 1.0 1.0 0.00 0.00 0.00 81 1012.9
20260506051017 68 115 0.0 0.0 0.00 0.00 0.00 81 1012.8
20260506050515 68 115 1.0 1.0 0.00 0.00 0.00 81 1013.1
20260506045005 68 111 0.0 0.0 0.00 0.00 0.00 83 1012.7
20260506044503 68 139 1.0 1.0 0.00 0.00 0.00 83 1012.7
20260506044000 67 115 1.0 2.0 0.00 0.00 0.00 83 1012.7
20260506043457 66 108 0.0 0.0 0.00 0.00 0.00 86 1012.5
20260506042955 65 119 0.0 0.0 0.00 0.00 0.00 89 1012.7
20260506042454 65 112 0.0 0.0 0.00 0.00 0.00 90 1012.6
20260506041952 64 125 1.0 1.0 0.00 0.00 0.00 91 1012.9
20260506041450 64 111 0.0 0.0 0.00 0.00 0.00 92 1012.8
20260506040947 64 108 0.0 0.0 0.00 0.00 0.00 92 1012.9
20260506040444 63 110 0.0 0.0 0.00 0.00 0.00 93 1012.5
20260506035940 63 114 0.0 0.0 0.00 0.00 0.00 93 1013.1
20260506035438 63 110 0.0 0.0 0.00 0.00 0.00 93 1012.9
20260506034934 63 112 0.0 0.0 0.00 0.00 0.00 93 1012.8
20260506034431 63 111 0.0 0.0 0.00 0.00 0.00 93 1012.8
20260506033928 63 112 0.0 0.0 0.00 0.00 0.00 92 1012.8
20260506033426 64 110 0.0 0.0 0.00 0.00 0.00 92 1013.1
20260506032922 64 111 0.0 0.0 0.00 0.00 0.00 92 1013.2
20260506032419 64 118 0.0 0.0 0.00 0.00 0.00 91 1012.8
20260506031916 64 111 0.0 0.0 0.00 0.00 0.00 91 1012.8
20260506031413 64 110 0.0 0.0 0.00 0.00 0.00 91 1012.7
20260506030911 64 112 0.0 0.0 0.00 0.00 0.00 91 1012.6
20260506030409 65 111 0.0 0.0 0.00 0.00 0.00 90 1012.5
20260506025905 65 111 0.0 0.0 0.00 0.00 0.00 90 1012.5
20260506025403 65 110 0.0 0.0 0.00 0.00 0.00 89 1012.4
20260506024859 66 110 0.0 0.0 0.00 0.00 0.00 89 1012.6
20260506024356 66 111 0.0 0.0 0.00 0.00 0.00 88 1012.6
20260506023852 66 111 0.0 0.0 0.00 0.00 0.00 87 1012.5
20260506023349 66 111 0.0 0.0 0.00 0.00 0.00 87 1012.7
20260506022846 67 111 0.0 0.0 0.00 0.00 0.00 87 1012.4
20260506022343 67 111 0.0 0.0 0.00 0.00 0.00 86 1012.5
20260506021841 67 111 0.0 0.0 0.00 0.00 0.00 86 1012.1
20260506021338 67 111 0.0 0.0 0.00 0.00 0.00 86 1012.2
20260506020834 67 111 0.0 0.0 0.00 0.00 0.00 86 1012.5
20260506020333 68 111 0.0 0.0 0.00 0.00 0.00 86 1012.4
20260506015830 68 111 0.0 0.0 0.00 0.00 0.00 85 1012.4
20260506015327 68 111 0.0 0.0 0.00 0.00 0.00 85 1012.1
20260506014824 69 111 0.0 0.0 0.00 0.00 0.00 84 1012.1
20260506014321 69 112 0.0 0.0 0.00 0.00 0.00 83 1012.5
20260506013817 69 114 0.0 0.0 0.00 0.00 0.00 83 1012.2
20260506013315 69 112 0.0 0.0 0.00 0.00 0.00 83 1012.2
20260506012811 69 113 0.0 0.0 0.00 0.00 0.00 82 1012.5